Regional Weather Roundup
Issued by NWS

Home | Current Version | Previous Version | Text Only | Print | Product List | Glossary On
Versions: 1 2 3 4 5 6 7 8 9 10 11 12 13 14 15 16 17 18 19 20 21 22 23 24 25 26 27 28
000
ASUS44 KJAN 051010
RWRMS

MISSISSIPPI HOURLY WEATHER ROUNDUP
NATIONAL WEATHER SERVICE JACKSON MS
400 AM CST MON DEC 05 2016

NOTE: "FAIR: INDICATES FEW OR NO CLOUDS BELOW 12,000 FEET WITH NO
SIGNIFICANT WEATHER AND/OR OBSTRUCTIONS TO VISIBILITY.

MSZ001>002-007>008-010>013-018>021-025>028-034>036-051100-
NORTHWEST MISSISSIPPI

CITY           SKY/WX    TMP DP  RH WIND       PRES   REMARKS
CLEVELAND      CLOUDY    45  45  99 NE8       30.00F
GREENWOOD      CLOUDY    47  42  83 NE8       29.99F
GREENVILLE     CLOUDY    45  40  82 NE6       30.00F
OXFORD         CLOUDY    41  39  93 NE7       30.02F
WINONA         CLOUDY    46  45  97 NE7       29.98F
$$

MSZ003>006-009-014>017-022>024-029>033-037>039-051100-
NORTHEAST MISSISSIPPI

CITY           SKY/WX    TMP DP  RH WIND       PRES   REMARKS
COLUMBUS AFB   CLOUDY    49  47  91 N7        29.99S
GOLDN TRIANGLE CLOUDY    48  45  87 N8        29.95F
STARKVILLE     CLOUDY    46  46 100 N7        30.01F FOG
TUPELO         CLOUDY    46  42  86 N9        30.00F
$$

MSZ040-058-051100-
CENTRAL MISSISSIPPI

CITY           SKY/WX    TMP DP  RH WIND       PRES   REMARKS
JACKSON INTL   CLOUDY    49  47  93 NE7       29.96F
JACKSON HAWKNS CLOUDY    49  47  93 NE5       29.97F
MADISON        CLOUDY    46  45  93 CALM      29.96F
MERIDIAN KEY   CLOUDY    52  48  86 N9        29.96F
MERIDIAN NAS   FOG       51  47  86 N7        29.98F VSB 1/2
VICKSBURG VKS  CLOUDY    48  46  93 NE7       29.95F
$$

MSZ059>079-051100-
SOUTH MISSISSIPPI

CITY           SKY/WX    TMP DP  RH WIND       PRES   REMARKS
BROOKHAVEN     CLOUDY   N/A N/A N/A N7        29.94F FOG
COLUMBIA       FOG       54  52  94 NE6       29.97F VSB 1/2
HATTIESBURG    CLOUDY    54  53  97 NE5       29.96R
LAUREL         CLOUDY    52  52 100 E5        29.97R
MCCOMB         CLOUDY    50  48  93 NE5       29.93F FOG
NATCHEZ        CLOUDY    48  45  87 NE7       29.95S
PINE BELT      CLOUDY    54  50  87 NE6       29.97R VSB 1
$$

MSZ080>082-051100-
COASTAL MISSISSIPPI

CITY           SKY/WX    TMP DP  RH WIND       PRES   REMARKS
BILOXI         CLOUDY    59  59 100 NE10      29.89F FOG
PASCAGOULA     CLOUDY    61  58  90 N12       29.90F
GULFPORT       CLOUDY    59  59 100 N10       29.90F FOG
$$

LAZ007>009-015>016-023>026-051100-
NORTHEAST LOUISIANA

CITY           SKY/WX    TMP DP  RH WIND       PRES   REMARKS
BASTROP        CLOUDY    45  45  98 CALM      30.03R
TALLULAH/VBURG CLOUDY    48  45  89 NE9       29.96F
VIDALIA        DRIZZLE   48  46  93 NE7       29.98R
$$




USA.gov is the U.S. government's official web portal to all federal, state and local government web resources and services.